Retour au catalogue

ELECTRON KICK STAGE R/B

ActifVLEO
NORAD 63207·ROCKET BODY·🇺🇸 United States

Lancé Mar 15, 2025 depuis Rocket Lab Launch Complex 1

Loading…

Prochains Passages (prochaines 24 heures)

TLE

FraisSource: Space-Track

Époque: Sep 14, 2026, 05:05 UTC

1 63207U 25050C   26257.21244471  .00003646  00000-0  27167-3 0  9992
2 63207  42.0187 327.4858 0005661 328.9669  31.0824 15.04162185 82393

Suivez ELECTRON KICK STAGE R/B en temps réel avec AllMySat

Download on the App Store